Location: Cisewo
(53.3833°N, 14.9000°E)
Time: 13:48:14
(UTC+00:00)

USA 229 - Pass Details

Date: 05 August 2021
Orbit: 956 x 1256 km, 63.5° (Epoch: 08 August)

Event Time Altitude Azimuth Distance (km) Brightness Sun altitude
Rises 20:42:20 0° 313° (NW) 3,943 8.4 -13.4°
Reaches altitude 10° 20:45:00 10° 309° (NW) 3,024 7.3 -13.6°
Maximum altitude 20:52:03 56° 234° (SW) 1,394 4.3 -14.2°
Enters shadow 20:57:42 18° 163° (SSE) 2,592 5.1 -14.6°
